Ruby Princess — ZCDY2 — position and weather

sailwx.info

Track history (hours):
 
Tides and Currents Weather Stations Pressure Air Temp Water Temp Dewpoint Dewpoint Depression Visibility Wind Speed Wind Dir Waves Ship Positions

Ruby Princess

Last reported at 2018-Feb-18 11:22 UTC. Time now 2018-Feb-19 10:11 UTC.
Position N 30°44' W 116°58'.

Length 289 m; draft 8.6 m.

Type: Ship. MMSI: 310567000.

Date/timePositionNaut miles runAvg speedWind from/ knotsBaromVisibWave heightAir tempDewpointWater temp
2018-Feb-18 11:22N 30°44' W 116°58'720.3
2018-Feb-18 11:00N 30°51' W 117°01'1020.4
2018-Feb-18 10:30N 31°01' W 117°05'5320.2
2018-Feb-18 07:53N 31°51' W 117°26'820.2
2018-Feb-18 07:29N 31°58' W 117°30'1020.4
2018-Feb-18 06:59N 32°08' W 117°34'920.1
2018-Feb-18 06:30N 32°17' W 117°38'1019.9
2018-Feb-18 06:00N 32°26' W 117°42'917.6
2018-Feb-18 05:30N 32°34' W 117°46'917.5
2018-Feb-18 05:00N 32°43' W 117°50'917.6
2018-Feb-18 04:30N 32°51' W 117°53'917.8
2018-Feb-18 04:00N 32°59' W 117°57'917.4
2018-Feb-18 03:30N 33°07' W 118°01'917.4
2018-Feb-18 03:00N 33°15' W 118°05'917.2
2018-Feb-18 02:30N 33°24' W 118°08'815.3
2018-Feb-18 02:00N 33°31' W 118°11'713.8
2018-Feb-18 01:30N 33°37' W 118°14'611.2
2018-Feb-18 01:00N 33°43' W 118°15'3 5.0
2018-Feb-18 00:30N 33°45' W 118°17'0 0.1
2018-Feb-18 00:01N 33°45' W 118°17'0 0.0
2018-Feb-17 23:30N 33°45' W 118°17'0 0.0
2018-Feb-17 23:00N 33°45' W 118°17'0 0.0
2018-Feb-17 22:30N 33°45' W 118°17'0 0.0
2018-Feb-17 22:00N 33°45' W 118°17'0 0.0
2018-Feb-17 21:29N 33°45' W 118°17'0 0.0
2018-Feb-17 20:59N 33°45' W 118°17'0 0.0
2018-Feb-17 20:29N 33°45' W 118°17'0 0.0
2018-Feb-17 19:59N 33°45' W 118°17'0 0.0
2018-Feb-17 19:29N 33°45' W 118°17'0 0.0
2018-Feb-17 18:58N 33°45' W 118°17'0 0.0
2018-Feb-17 18:28N 33°45' W 118°17'0 0.0
2018-Feb-17 17:58N 33°45' W 118°17'0 0.0
2018-Feb-17 17:25N 33°45' W 118°17'0 0.0
2018-Feb-17 17:01N 33°45' W 118°17'0 0.0
2018-Feb-17 16:30N 33°45' W 118°17'0 0.0
2018-Feb-17 16:00N 33°45' W 118°17'0 0.0
2018-Feb-17 15:30N 33°45' W 118°17'0 0.0
2018-Feb-17 15:00N 33°45' W 118°17'0 0.0
2018-Feb-17 14:30N 33°45' W 118°17'1 1.8
2018-Feb-17 14:00N 33°44' W 118°17'3 6.2
2018-Feb-17 13:31N 33°42' W 118°14'611.0
2018-Feb-17 13:00N 33°37' W 118°10'713.4
2018-Feb-17 12:31N 33°31' W 118°08'714.1
2018-Feb-17 12:00N 33°24' W 118°05'714.1
2018-Feb-17 11:30N 33°18' W 118°02'714.3
2018-Feb-17 11:01N 33°11' W 117°59'714.9
2018-Feb-17 10:30N 33°04' W 117°56'816.1
2018-Feb-17 10:00N 32°56' W 117°52'816.7
2018-Feb-17 09:30N 32°49' W 117°49'816.8
2018-Feb-17 09:01N 32°41' W 117°46'714.3
2018-Feb-17 08:30N 32°34' W 117°43'816.5
2018-Feb-17 08:00N 32°26' W 117°39'917.5
2018-Feb-17 07:31N 32°18' W 117°36'19220.2
2018-Feb-16 22:00N 29°18' W 116°18'17822.2 140 / 91017.610.8 17.014.418.0
2018-Feb-16 14:00N 26°48' W 114°30'8220.5 190 / 11017.510.8 17.514.019.0
2018-Feb-16 10:00N 25°42' W 113°36'30712.8 290 / 151018.110.8 19.016.519.0
2018-Feb-15 10:00N 22°54' W 108°54'186 8.5 330 / 151016.410.8 21.517.521.0
2018-Feb-14 12:00N 24°54' W 106°18'   240 / 41015.810.8 23.519.623.0
2018-Feb-11 23:00N 27°24' W 115°12'32419.0 160 / 101013.910.8 18.511.218.0
2018-Feb-11 06:00N 32°21' W 117°40'918.0
2018-Feb-11 05:30N 32°29' W 117°44'917.7
2018-Feb-11 05:00N 32°38' W 117°48'917.7
2018-Feb-11 04:30N 32°46' W 117°53'817.3
2018-Feb-11 04:00N 32°54' W 117°56'917.1
2018-Feb-11 03:30N 33°02' W 117°58'917.2
2018-Feb-11 03:00N 33°10' W 118°02'917.0
2018-Feb-11 02:30N 33°18' W 118°06'1915.3
2018-Feb-11 01:16N 33°36' W 118°13'312.2
2018-Feb-11 01:00N 33°39' W 118°14'5 9.4
2018-Feb-11 00:30N 33°43' W 118°16'2 3.4
2018-Feb-11 00:00N 33°45' W 118°17'0 0.0
2018-Feb-10 23:29N 33°45' W 118°17'0 0.0
2018-Feb-10 22:59N 33°45' W 118°17'0 0.0
2018-Feb-10 22:29N 33°45' W 118°17'0 0.0
2018-Feb-10 21:59N 33°45' W 118°17'0 0.0
2018-Feb-10 21:29N 33°45' W 118°17'0 0.0
2018-Feb-10 20:55N 33°45' W 118°17'0 0.0
2018-Feb-10 20:28N 33°45' W 118°17'0 0.0
2018-Feb-10 19:58N 33°45' W 118°17'0 0.0
2018-Feb-10 19:28N 33°45' W 118°17'0 0.0
2018-Feb-10 19:00N 33°45' W 118°17'0 0.0
2018-Feb-10 18:30N 33°45' W 118°17'0 0.0
2018-Feb-10 18:00N 33°45' W 118°17'0 0.0
2018-Feb-10 17:30N 33°45' W 118°17'0 0.0
2018-Feb-10 17:00N 33°45' W 118°17'0 0.0
2018-Feb-10 16:29N 33°45' W 118°17'0 0.0
2018-Feb-10 15:59N 33°45' W 118°17'0 0.0
2018-Feb-10 15:29N 33°45' W 118°17'0 0.0
2018-Feb-10 14:59N 33°45' W 118°17'0 0.0
2018-Feb-10 14:28N 33°45' W 118°17'0 0.8
2018-Feb-10 14:01N 33°45' W 118°17'3 6.3
2018-Feb-10 13:31N 33°42' W 118°14'611.4
2018-Feb-10 13:00N 33°37' W 118°11'1513.9
2018-Feb-10 11:57N 33°23' W 118°04'714.3
2018-Feb-10 11:28N 33°17' W 118°02'714.7
2018-Feb-10 11:00N 33°10' W 118°00'714.5
2018-Feb-10 10:30N 33°04' W 117°56'714.0
2018-Feb-10 10:00N 32°57' W 117°53'714.9
2018-Feb-10 09:30N 32°50' W 117°50'917.7
2018-Feb-10 09:00N 32°42' W 117°46'917.5
2018-Feb-10 08:29N 32°33' W 117°43'817.3
2018-Feb-10 08:00N 32°26' W 117°39'815.3
2018-Feb-10 07:30N 32°19' W 117°36'1015.8
2018-Feb-10 06:52N 32°09' W 117°32'717.6
2018-Feb-10 06:28N 32°03' W 117°29'817.9
2018-Feb-10 06:00N 31°55' W 117°26'1020.3
2018-Feb-10 05:30N 31°45' W 117°21'3220.3
2018-Feb-10 03:55N 31°15' W 117°08'820.1
2018-Feb-10 03:30N 31°07' W 117°05'9220.5
2018-Feb-09 23:01N 29°41' W 116°28'022.0
2018-Feb-09 23:00N 29°41' W 116°28'34721.7
2018-Feb-09 07:00N 24°54' W 112°48'   290 / 151019.310.8 21.017.821.0
Track history (hours):
 
Tides and Currents Weather Stations Pressure Air Temp Water Temp Dewpoint Dewpoint Depression Visibility Wind Speed Wind Dir Waves Ship Positions

Ruby Princess

Last reported at 2018-Feb-18 11:22 UTC. Time now 2018-Feb-19 10:11 UTC.
Position N 30°44' W 116°58'.

Length 289 m; draft 8.6 m.

Type: Ship. MMSI: 310567000.

Date/timePositionNaut miles runAvg speedWind from/ knotsBaromVisibWave heightAir tempDewpointWater temp
2018-Feb-18 11:22N 30°44' W 116°58'720.3
2018-Feb-18 11:00N 30°51' W 117°01'1020.4
2018-Feb-18 10:30N 31°01' W 117°05'5320.2
2018-Feb-18 07:53N 31°51' W 117°26'820.2
2018-Feb-18 07:29N 31°58' W 117°30'1020.4
2018-Feb-18 06:59N 32°08' W 117°34'920.1
2018-Feb-18 06:30N 32°17' W 117°38'1019.9
2018-Feb-18 06:00N 32°26' W 117°42'917.6
2018-Feb-18 05:30N 32°34' W 117°46'917.5
2018-Feb-18 05:00N 32°43' W 117°50'917.6
2018-Feb-18 04:30N 32°51' W 117°53'917.8
2018-Feb-18 04:00N 32°59' W 117°57'917.4
2018-Feb-18 03:30N 33°07' W 118°01'917.4
2018-Feb-18 03:00N 33°15' W 118°05'917.2
2018-Feb-18 02:30N 33°24' W 118°08'815.3
2018-Feb-18 02:00N 33°31' W 118°11'713.8
2018-Feb-18 01:30N 33°37' W 118°14'611.2
2018-Feb-18 01:00N 33°43' W 118°15'3 5.0
2018-Feb-18 00:30N 33°45' W 118°17'0 0.1
2018-Feb-18 00:01N 33°45' W 118°17'0 0.0
2018-Feb-17 23:30N 33°45' W 118°17'0 0.0
2018-Feb-17 23:00N 33°45' W 118°17'0 0.0
2018-Feb-17 22:30N 33°45' W 118°17'0 0.0
2018-Feb-17 22:00N 33°45' W 118°17'0 0.0
2018-Feb-17 21:29N 33°45' W 118°17'0 0.0
2018-Feb-17 20:59N 33°45' W 118°17'0 0.0
2018-Feb-17 20:29N 33°45' W 118°17'0 0.0
2018-Feb-17 19:59N 33°45' W 118°17'0 0.0
2018-Feb-17 19:29N 33°45' W 118°17'0 0.0
2018-Feb-17 18:58N 33°45' W 118°17'0 0.0
2018-Feb-17 18:28N 33°45' W 118°17'0 0.0
2018-Feb-17 17:58N 33°45' W 118°17'0 0.0
2018-Feb-17 17:25N 33°45' W 118°17'0 0.0
2018-Feb-17 17:01N 33°45' W 118°17'0 0.0
2018-Feb-17 16:30N 33°45' W 118°17'0 0.0
2018-Feb-17 16:00N 33°45' W 118°17'0 0.0
2018-Feb-17 15:30N 33°45' W 118°17'0 0.0
2018-Feb-17 15:00N 33°45' W 118°17'0 0.0
2018-Feb-17 14:30N 33°45' W 118°17'1 1.8
2018-Feb-17 14:00N 33°44' W 118°17'3 6.2
2018-Feb-17 13:31N 33°42' W 118°14'611.0
2018-Feb-17 13:00N 33°37' W 118°10'713.4
2018-Feb-17 12:31N 33°31' W 118°08'714.1
2018-Feb-17 12:00N 33°24' W 118°05'714.1
2018-Feb-17 11:30N 33°18' W 118°02'714.3
2018-Feb-17 11:01N 33°11' W 117°59'714.9
2018-Feb-17 10:30N 33°04' W 117°56'816.1
2018-Feb-17 10:00N 32°56' W 117°52'816.7
2018-Feb-17 09:30N 32°49' W 117°49'816.8
2018-Feb-17 09:01N 32°41' W 117°46'714.3
2018-Feb-17 08:30N 32°34' W 117°43'816.5
2018-Feb-17 08:00N 32°26' W 117°39'917.5
2018-Feb-17 07:31N 32°18' W 117°36'19220.2
2018-Feb-16 22:00N 29°18' W 116°18'17822.2 140 / 91017.610.8 17.014.418.0
2018-Feb-16 14:00N 26°48' W 114°30'8220.5 190 / 11017.510.8 17.514.019.0
2018-Feb-16 10:00N 25°42' W 113°36'30712.8 290 / 151018.110.8 19.016.519.0
2018-Feb-15 10:00N 22°54' W 108°54'186 8.5 330 / 151016.410.8 21.517.521.0
2018-Feb-14 12:00N 24°54' W 106°18'   240 / 41015.810.8 23.519.623.0
2018-Feb-11 23:00N 27°24' W 115°12'32419.0 160 / 101013.910.8 18.511.218.0
2018-Feb-11 06:00N 32°21' W 117°40'918.0
2018-Feb-11 05:30N 32°29' W 117°44'917.7
2018-Feb-11 05:00N 32°38' W 117°48'917.7
2018-Feb-11 04:30N 32°46' W 117°53'817.3
2018-Feb-11 04:00N 32°54' W 117°56'917.1
2018-Feb-11 03:30N 33°02' W 117°58'917.2
2018-Feb-11 03:00N 33°10' W 118°02'917.0
2018-Feb-11 02:30N 33°18' W 118°06'1915.3
2018-Feb-11 01:16N 33°36' W 118°13'312.2
2018-Feb-11 01:00N 33°39' W 118°14'5 9.4
2018-Feb-11 00:30N 33°43' W 118°16'2 3.4
2018-Feb-11 00:00N 33°45' W 118°17'0 0.0
2018-Feb-10 23:29N 33°45' W 118°17'0 0.0
2018-Feb-10 22:59N 33°45' W 118°17'0 0.0
2018-Feb-10 22:29N 33°45' W 118°17'0 0.0
2018-Feb-10 21:59N 33°45' W 118°17'0 0.0
2018-Feb-10 21:29N 33°45' W 118°17'0 0.0
2018-Feb-10 20:55N 33°45' W 118°17'0 0.0
2018-Feb-10 20:28N 33°45' W 118°17'0 0.0
2018-Feb-10 19:58N 33°45' W 118°17'0 0.0
2018-Feb-10 19:28N 33°45' W 118°17'0 0.0
2018-Feb-10 19:00N 33°45' W 118°17'0 0.0
2018-Feb-10 18:30N 33°45' W 118°17'0 0.0
2018-Feb-10 18:00N 33°45' W 118°17'0 0.0
2018-Feb-10 17:30N 33°45' W 118°17'0 0.0
2018-Feb-10 17:00N 33°45' W 118°17'0 0.0
2018-Feb-10 16:29N 33°45' W 118°17'0 0.0
2018-Feb-10 15:59N 33°45' W 118°17'0 0.0
2018-Feb-10 15:29N 33°45' W 118°17'0 0.0
2018-Feb-10 14:59N 33°45' W 118°17'0 0.0
2018-Feb-10 14:28N 33°45' W 118°17'0 0.8
2018-Feb-10 14:01N 33°45' W 118°17'3 6.3
2018-Feb-10 13:31N 33°42' W 118°14'611.4
2018-Feb-10 13:00N 33°37' W 118°11'1513.9
2018-Feb-10 11:57N 33°23' W 118°04'714.3
2018-Feb-10 11:28N 33°17' W 118°02'714.7
2018-Feb-10 11:00N 33°10' W 118°00'714.5
2018-Feb-10 10:30N 33°04' W 117°56'714.0
2018-Feb-10 10:00N 32°57' W 117°53'714.9
2018-Feb-10 09:30N 32°50' W 117°50'917.7
2018-Feb-10 09:00N 32°42' W 117°46'917.5
2018-Feb-10 08:29N 32°33' W 117°43'817.3
2018-Feb-10 08:00N 32°26' W 117°39'815.3
2018-Feb-10 07:30N 32°19' W 117°36'1015.8
2018-Feb-10 06:52N 32°09' W 117°32'717.6
2018-Feb-10 06:28N 32°03' W 117°29'817.9
2018-Feb-10 06:00N 31°55' W 117°26'1020.3
2018-Feb-10 05:30N 31°45' W 117°21'3220.3
2018-Feb-10 03:55N 31°15' W 117°08'820.1
2018-Feb-10 03:30N 31°07' W 117°05'9220.5
2018-Feb-09 23:01N 29°41' W 116°28'022.0
2018-Feb-09 23:00N 29°41' W 116°28'34721.7
2018-Feb-09 07:00N 24°54' W 112°48'   290 / 151019.310.8 21.017.821.0

Dump ship's entire track history